Regional Weather Roundup
Issued by NWS

Home | Current Version | Previous Version | Text Only | Print | Product List | Glossary Off
Versions: 1 2 3 4 5 6 7 8 9 10 11 12 13 14 15 16 17 18 19 20 21 22 23 24 25 26 27 28 29 30 31 32 33 34 35 36 37 38 39 40 41 42 43 44 45 46 47 48 49 50

000
ASUS43 KFSD 311102
RWRSD

WEATHER ROUNDUP FOR SOUTH DAKOTA
NATIONAL WEATHER SERVICE SIOUX FALLS SD
500 AM CST SAT JAN 31 2015

NOTE: "FAIR" INDICATES FEW OR NO CLOUDS BELOW 12,000 FEET WITH NO
SIGNIFICANT WEATHER AND/OR OBSTRUCTIONS TO VISIBILITY.


SDZ001>005-009-010-012>017-311200-
NORTHWEST AND NORTH CENTRAL SOUTH DAKOTA

CITY           SKY/WX    TMP DP  RH WIND       PRES   REMARKS
BUFFALO          N/A     22  20  92 NE9       29.96F WCI  12
FAITH            N/A     25  22  88 E13       30.06F WCI  14
MOBRIDGE       CLOUDY    25  23  92 NE13      30.14S FOG     WCI  14
$$

SDZ012>016-024>037-041>051-057-063-072>074-311200-
SOUTHWEST AND SOUTH CENTRAL SOUTH DAKOTA

CITY           SKY/WX    TMP DP  RH WIND       PRES   REMARKS
RAPID CTY ARPT MOCLDY    28  22  78 N8        30.01F WCI  20
PIERRE         MOCLDY    25  24  96 NE15      30.11S FOG     WCI  13
CUSTER         CLOUDY    26  18  71 N5        29.96F WCI  20
ELLSWORTH AFB  MOCLDY    28  21  75 SE2       30.01F
PHILIP         CLOUDY    25  21  85 E5        30.06F WCI  19
PINE RIDGE     CLOUDY    25  22  88 E6        29.99F WCI  18
WINNER         FAIR      28  22  78 NE3       30.06F
$$

SDZ004>011-016>023-039-040-311200-
NORTHEAST SOUTH DAKOTA

CITY           SKY/WX    TMP DP  RH WIND       PRES   REMARKS
ABERDEEN       CLOUDY    25  22  88 N14       30.19R WCI  13
WATERTOWN      CLOUDY    24  22  91 NE15      30.12S FOG     WCI  11
SISSETON         N/A     22  19  89 NE16      30.21R WCI   8
$$

SDZ017-020-022-023-036>040-048>070-311200-
SOUTHEAST SOUTH DAKOTA

CITY           SKY/WX    TMP DP  RH WIND       PRES   REMARKS
SIOUX FALLS    MOCLDY    22  21  96 NE5       30.10R WCI  16
HURON          CLOUDY    26  24  92 NE10      30.13F FOG     WCI  16
MITCHELL       MOCLDY    26  24  92 N8        30.11S WCI  18
YANKTON        CLOUDY    30  25  80 CALM      30.10R
$$

ABBREVIATIONS USED IN REMARKS
   TC - TEMPERATURE IN CELSIUS
  WCI - WIND CHILL INDEX
   HX - HEAT INDEX
  VSB - VISIBILITY




USA.gov is the U.S. government's official web portal to all federal, state and local government web resources and services.